TimeCST,TemperatureF,Dew PointF,Humidity,Sea Level PressureIn,VisibilityMPH,Wind Direction,Wind SpeedMPH,Gust SpeedMPH,PrecipitationIn,Events,Conditions,WindDirDegrees,DateUTC
12:15 AM,33.8,6.8,32,29.80,10.0,South,27.6,40.3,N/A,,Clear,190,2014-01-30 06:15:00
12:35 AM,33.8,8.6,35,29.78,10.0,South,28.8,40.3,N/A,,Clear,190,2014-01-30 06:35:00
12:55 AM,33.8,8.6,35,29.77,10.0,South,29.9,38.0,N/A,,Clear,190,2014-01-30 06:55:00
1:15 AM,33.8,8.6,35,29.76,10.0,South,26.5,38.0,N/A,,Clear,190,2014-01-30 07:15:00
1:35 AM,33.8,8.6,35,29.73,10.0,South,29.9,40.3,N/A,,Clear,190,2014-01-30 07:35:00
1:55 AM,33.8,8.6,35,29.72,10.0,South,29.9,34.5,N/A,,Clear,190,2014-01-30 07:55:00
2:15 AM,33.8,8.6,35,29.71,10.0,South,31.1,38.0,N/A,,Clear,190,2014-01-30 08:15:00
2:35 AM,33.8,8.6,35,29.70,10.0,South,26.5,39.1,N/A,,Clear,190,2014-01-30 08:35:00
2:55 AM,33.8,8.6,35,29.68,10.0,South,31.1,42.6,N/A,,Clear,190,2014-01-30 08:55:00
3:15 AM,33.8,10.4,38,29.66,10.0,South,32.2,40.3,N/A,,Clear,190,2014-01-30 09:15:00
3:35 AM,33.8,10.4,38,29.67,10.0,South,29.9,35.7,N/A,,Clear,190,2014-01-30 09:35:00
3:55 AM,33.8,10.4,38,29.66,10.0,South,28.8,35.7,N/A,,Clear,190,2014-01-30 09:55:00
4:15 AM,32.0,10.4,41,29.65,10.0,South,29.9,39.1,N/A,,Clear,180,2014-01-30 10:15:00
4:35 AM,32.0,10.4,41,29.62,10.0,South,28.8,35.7,N/A,,Clear,180,2014-01-30 10:35:00
4:55 AM,32.0,10.4,41,29.62,10.0,South,31.1,40.3,N/A,,Clear,190,2014-01-30 10:55:00
5:15 AM,32.0,10.4,41,29.61,10.0,South,29.9,39.1,N/A,,Clear,190,2014-01-30 11:15:00
5:35 AM,32.0,10.4,41,29.60,10.0,South,27.6,36.8,N/A,,Clear,190,2014-01-30 11:35:00
5:55 AM,30.2,10.4,44,29.61,10.0,South,27.6,35.7,N/A,,Clear,190,2014-01-30 11:55:00
6:15 AM,32.0,10.4,41,29.61,10.0,South,28.8,35.7,N/A,,Clear,190,2014-01-30 12:15:00
6:35 AM,32.0,10.4,41,29.61,10.0,SSW,29.9,35.7,N/A,,Clear,200,2014-01-30 12:35:00
6:55 AM,32.0,10.4,41,29.62,10.0,SSW,26.5,38.0,N/A,,Clear,200,2014-01-30 12:55:00
7:15 AM,32.0,10.4,41,29.64,10.0,SSW,26.5,39.1,N/A,,Clear,200,2014-01-30 13:15:00
7:35 AM,32.0,10.4,41,29.64,10.0,SSW,27.6,38.0,N/A,,Clear,200,2014-01-30 13:35:00
7:55 AM,32.0,10.4,41,29.66,10.0,SSW,26.5,33.4,N/A,,Clear,200,2014-01-30 13:55:00
8:15 AM,32.0,10.4,41,29.65,10.0,SSW,24.2,32.2,N/A,,Clear,200,2014-01-30 14:15:00
8:35 AM,33.8,10.4,38,29.67,10.0,SSW,25.3,33.4,N/A,,Clear,200,2014-01-30 14:35:00
8:55 AM,33.8,10.4,38,29.68,10.0,SSW,25.3,31.1,N/A,,Clear,200,2014-01-30 14:55:00
9:15 AM,33.8,10.4,38,29.68,10.0,SSW,25.3,33.4,N/A,,Clear,210,2014-01-30 15:15:00
9:35 AM,35.6,12.2,38,29.68,10.0,SSW,20.7,35.7,N/A,,Clear,200,2014-01-30 15:35:00
9:55 AM,35.6,10.4,35,29.70,10.0,SSW,20.7,29.9,N/A,,Clear,210,2014-01-30 15:55:00
10:15 AM,35.6,12.2,38,29.71,10.0,SW,21.9,31.1,N/A,,Clear,220,2014-01-30 16:15:00
10:35 AM,37.4,12.2,36,29.72,10.0,SSW,20.7,28.8,N/A,,Clear,210,2014-01-30 16:35:00
10:55 AM,37.4,12.2,36,29.74,10.0,SW,18.4,-,N/A,,Clear,230,2014-01-30 16:55:00
11:15 AM,39.2,12.2,33,29.73,10.0,SSW,19.6,-,N/A,,Clear,210,2014-01-30 17:15:00
11:35 AM,39.2,14.0,36,29.74,10.0,SSW,17.3,-,N/A,,Clear,210,2014-01-30 17:35:00
11:55 AM,41.0,12.2,31,29.75,10.0,WSW,12.7,-,N/A,,Clear,240,2014-01-30 17:55:00
12:15 PM,42.8,14.0,31,29.77,10.0,WSW,13.8,-,N/A,,Clear,250,2014-01-30 18:15:00
12:35 PM,42.8,14.0,31,29.75,10.0,WSW,10.4,-,N/A,,Clear,240,2014-01-30 18:35:00
12:55 PM,42.8,15.8,34,29.75,10.0,WSW,9.2,-,N/A,,Clear,240,2014-01-30 18:55:00
1:15 PM,44.6,15.8,31,29.75,10.0,West,9.2,-,N/A,,Clear,270,2014-01-30 19:15:00
1:35 PM,44.6,15.8,31,29.75,10.0,WNW,6.9,-,N/A,,Clear,290,2014-01-30 19:35:00
1:55 PM,46.4,15.8,29,29.75,10.0,NW,6.9,-,N/A,,Clear,310,2014-01-30 19:55:00
2:15 PM,46.4,17.6,32,29.76,10.0,NNW,8.1,-,N/A,,Clear,330,2014-01-30 20:15:00
2:35 PM,48.2,17.6,30,29.76,10.0,NNW,6.9,-,N/A,,Clear,340,2014-01-30 20:35:00
2:55 PM,48.2,17.6,30,29.76,10.0,North,11.5,16.1,N/A,,Clear,10,2014-01-30 20:55:00
3:15 PM,46.4,19.4,34,29.78,10.0,North,13.8,-,N/A,,Clear,10,2014-01-30 21:15:00
3:35 PM,46.4,19.4,34,29.79,10.0,North,12.7,-,N/A,,Clear,10,2014-01-30 21:35:00
3:55 PM,46.4,19.4,34,29.80,10.0,NNE,11.5,-,N/A,,Clear,20,2014-01-30 21:55:00
4:15 PM,46.4,19.4,34,29.80,10.0,NE,6.9,-,N/A,,Clear,40,2014-01-30 22:15:00
4:35 PM,44.6,19.4,37,29.82,10.0,North,11.5,16.1,N/A,,Partly Cloudy,10,2014-01-30 22:35:00
4:55 PM,42.8,19.4,39,29.82,10.0,NNE,13.8,-,N/A,,Clear,20,2014-01-30 22:55:00
5:15 PM,41.0,19.4,42,29.83,10.0,North,15.0,-,N/A,,Clear,10,2014-01-30 23:15:00
5:35 PM,39.2,19.4,45,29.85,10.0,NNE,9.2,-,N/A,,Clear,20,2014-01-30 23:35:00
5:55 PM,39.2,17.6,42,29.86,10.0,NNE,13.8,-,N/A,,Clear,20,2014-01-30 23:55:00
6:15 PM,37.4,17.6,45,29.87,10.0,NNE,11.5,-,N/A,,Clear,20,2014-01-31 00:15:00
6:35 PM,37.4,17.6,45,29.88,10.0,NNE,8.1,18.4,N/A,,Clear,30,2014-01-31 00:35:00
6:55 PM,37.4,17.6,45,29.88,10.0,NNE,16.1,21.9,N/A,,Partly Cloudy,20,2014-01-31 00:55:00
7:15 PM,35.6,17.6,48,29.89,10.0,NNE,12.7,18.4,N/A,,Partly Cloudy,30,2014-01-31 01:15:00
7:35 PM,35.6,15.8,44,29.89,10.0,NNE,12.7,17.3,N/A,,Mostly Cloudy,30,2014-01-31 01:35:00
7:55 PM,35.6,17.6,48,29.90,10.0,NNE,10.4,-,N/A,,Overcast,30,2014-01-31 01:55:00
8:15 PM,35.6,17.6,48,29.91,10.0,NNE,11.5,-,N/A,,Overcast,30,2014-01-31 02:15:00
8:35 PM,35.6,15.8,44,29.91,10.0,NNE,12.7,-,N/A,,Overcast,20,2014-01-31 02:35:00
8:55 PM,33.8,15.8,48,29.92,10.0,NNE,15.0,-,N/A,,Mostly Cloudy,20,2014-01-31 02:55:00
9:15 PM,33.8,15.8,48,29.93,10.0,NNE,10.4,18.4,N/A,,Partly Cloudy,30,2014-01-31 03:15:00
9:35 PM,33.8,15.8,48,29.93,10.0,NNE,11.5,-,N/A,,Clear,30,2014-01-31 03:35:00
9:55 PM,33.8,15.8,48,29.92,10.0,NNE,11.5,-,N/A,,Clear,30,2014-01-31 03:55:00
10:15 PM,32.0,15.8,51,29.92,10.0,NNE,13.8,19.6,N/A,,Clear,30,2014-01-31 04:15:00
10:35 PM,32.0,15.8,51,29.92,10.0,NE,10.4,20.7,N/A,,Clear,40,2014-01-31 04:35:00
10:55 PM,32.0,15.8,51,29.93,10.0,NE,16.1,21.9,N/A,,Partly Cloudy,40,2014-01-31 04:55:00
11:15 PM,30.2,14.0,51,29.95,10.0,NE,16.1,23.0,N/A,,Mostly Cloudy,40,2014-01-31 05:15:00
11:35 PM,30.2,14.0,51,29.95,10.0,NE,16.1,19.6,N/A,,Scattered Clouds,40,2014-01-31 05:35:00
11:55 PM,30.2,14.0,51,29.93,10.0,NE,12.7,21.9,N/A,,Partly Cloudy,50,2014-01-31 05:55:00